• Join FlightAware (Why Join?)
  • Login
  • US Flag 
02:52AM EDT


 

Airport Tracker/Info


-or-


 

Live Flight TrackerFlight Track Log ✈ DAL730 ✈ 26-Aug-2013 ✈ KCHS - KATL

Flight Track Log - Related Links

Times and Time Zones

All times are in EDT time to prevent confusion due to time zone crossing. See the DAL730 flight status page for this flight to view local times or setup timezone preferences in your user account.

Time Position Orientation Groundspeed Altitude Reporting Facility
EDT Latitude Longitude Course Direction KTS MPH feet Rate Location/Type
06:39PM 32.8822 -80.2581 256° West 268 308 7,500  Level Jacksonville Center
06:40PM 32.9028 -80.3417 286° West 287 330 10,200 1,860 Climbing Jacksonville Center
06:41PM 32.9319 -80.4497 288° West 307 353 11,300 2,100 Climbing Jacksonville Center
06:42PM 32.9758 -80.5600 295° West 342 394 14,500 3,000 Climbing Jacksonville Center
06:43PM 32.9515 -80.7167 276° West  Level FlightAware Approximate
06:43PM 33.0239 -80.6753 296° West 373 429 17,300  Level Jacksonville Center
06:44PM 32.9626 -80.8380 276° West  Level FlightAware Approximate
06:44PM 33.0178 -80.8092 267° West 392 451 19,800  Level Jacksonville Center
06:45PM 32.9508 -80.9575 256° West  Level FlightAware Approximate
06:50PM 32.8550 -81.5530 267° West 435 501 22,000  Level FlightAware
06:50PM 32.8360 -81.6390 255° West 438 504 22,000  Level FlightAware
06:51PM 32.8360 -81.7540 270° West 449 517 22,000  Level FlightAware
06:52PM 32.8540 -81.8470 283° West 448 516 22,000  Level FlightAware
06:52PM 32.8700 -81.9300 283° West 448 516 22,000  Level FlightAware
06:53PM 32.8870 -82.0180 283° West 447 514 22,000  Level FlightAware
06:53PM 32.9010 -82.0920 283° West 448 516 22,000  Level FlightAware
06:54PM 32.9180 -82.1790 283° West 450 518 22,000  Level FlightAware
06:55PM 32.9340 -82.2630 283° West 451 519 22,000  Level FlightAware
06:55PM 32.9490 -82.3420 283° West 452 520 22,000  Level FlightAware
06:56PM 32.9660 -82.4310 283° West 452 520 22,000  Level FlightAware
06:56PM 32.9830 -82.5210 283° West 452 520 22,000  Level FlightAware
06:57PM 32.9990 -82.6060 283° West 452 520 22,000  Level FlightAware
06:57PM 33.0130 -82.6830 282° West 452 520 22,000 -360 Level FlightAware
06:58PM 33.0300 -82.7720 283° West 453 521 21,600 -840 Descending FlightAware
06:59PM 33.0450 -82.8540 282° West 449 517 21,100 -1,080 Descending FlightAware
06:59PM 33.0600 -82.9390 282° West 442 509 20,400 -660 Descending FlightAware
07:00PM 33.0710 -83.0010 282° West 442 509 20,400  Level FlightAware
07:00PM 33.0840 -83.0740 282° West 442 509 20,400  Level FlightAware
07:01PM 33.0970 -83.1470 282° West 442 509 20,400  Level FlightAware
07:01PM 33.1100 -83.2200 282° West 442 509 20,400  Level FlightAware
07:02PM 33.1240 -83.2950 283° West 442 509 20,400 -2,880 Level FlightAware
07:03PM 33.1680 -83.4260 292° West 417 480 16,800 -1,620 Descending FlightAware
07:08PM 33.3710 -84.0240 292° West 389 448 11,700 -1,080 Descending FlightAware
07:08PM 33.3760 -84.0370 295° West 389 448 11,700  Level FlightAware
07:08PM 33.3840 -84.0520 303° West 387 445 11,700  Level FlightAware
07:08PM 33.3920 -84.0640 309° West 386 444 11,700  Level FlightAware
07:08PM 33.3970 -84.0720 307° West 386 444 11,700  Level FlightAware
07:08PM 33.4050 -84.0850 306° West 385 443 11,700  Level FlightAware
07:08PM 33.4140 -84.0980 310° West 385 443 11,700  Level FlightAware
07:08PM 33.4220 -84.1090 311° West 385 443 11,700  Level FlightAware
07:09PM 33.4560 -84.1590 309° West 385 443 11,700  Level FlightAware
07:09PM 33.4650 -84.1720 310° West 385 443 11,700  Level FlightAware
07:09PM 33.4670 -84.1750 309° West 385 443 11,700  Level FlightAware
07:09PM 33.4790 -84.1920 310° West 385 443 11,700  Level FlightAware
07:09PM 33.4830 -84.1980 309° West 385 443 11,700  Level FlightAware
07:09PM 33.4930 -84.2120 311° West 384 442 11,700  Level FlightAware
07:10PM 33.5010 -84.2240 309° West 376 433 11,700  Level FlightAware
07:10PM 33.5070 -84.2330 309° West 367 422 11,700  Level FlightAware
07:10PM 33.5160 -84.2460 310° West 354 407 11,700  Level FlightAware
07:10PM 33.5230 -84.2580 305° West 343 395 11,700 -120 Level FlightAware
07:11PM 33.5370 -84.3370 282° West 299 344 11,600 -420 Descending FlightAware
07:11PM 33.5370 -84.3970 270° West 264 304 11,100 -1,500 Descending FlightAware
07:12PM 33.5370 -84.4430 270° West 257 296 10,000 -2,760 Descending FlightAware
07:12PM 33.5370 -84.4920 270° West 271 312 8,100 -3,120 Descending FlightAware
07:13PM 33.5370 -84.5250 270° West 262 302 7,100 -2,520 Descending FlightAware
07:13PM 33.5370 -84.5510 270° West 254 292 6,400 -2,700 Descending FlightAware
07:14PM 33.5370 -84.5820 270° West 253 291 5,300 -2,400 Descending FlightAware
07:14PM 33.5370 -84.6240 270° West 234 269 4,300 -1,500 Descending FlightAware
07:14PM 33.5370 -84.6500 270° West 218 251 4,000 -780 Descending FlightAware
07:15PM 33.5390 -84.6720 276° West 207 238 3,800 -660 Descending FlightAware
07:15PM 33.5440 -84.6780 315° West 198 228 3,700 -540 Descending FlightAware
07:15PM 33.5490 -84.6810 333° Northwest 193 222 3,700 -540 Level FlightAware
07:15PM 33.5550 -84.6820 352° North 188 216 3,600 -840 Descending FlightAware
07:16PM 33.5740 -84.6700 28° Northeast 185 213 3,200 -780 Descending FlightAware
07:16PM 33.5840 -84.6520 56° Northeast 186 214 3,000 -600 Descending FlightAware
07:16PM 33.5950 -84.6340 54° Northeast 180 207 2,800 -540 Descending FlightAware
07:17PM 33.6060 -84.6140 57° Northeast 178 205 2,600 -600 Descending FlightAware
07:17PM 33.6150 -84.5970 58° Northeast 175 201 2,400 -240 Descending FlightAware
07:17PM 33.6190 -84.5890 59° Northeast 170 196 2,500  Climbing FlightAware
07:17PM 33.6200 -84.5790 83° East 175 201 2,400  Descending FlightAware
07:18PM 33.6200 -84.5600 90° East 172 198 2,500 -300 Climbing FlightAware
07:18PM 33.6200 -84.5390 90° East 142 163 2,200 -840 Descending FlightAware
07:18PM 33.6200 -84.5240 90° East 135 155 1,900 -780 Descending FlightAware
07:19PM 33.6200 -84.5100 90° East 134 154 1,700 -600 Descending FlightAware
07:19PM 33.6200 -84.4940 90° East 132 152 1,500 -600 Descending FlightAware
07:20PM 33.6200 -84.4750 90° East 133 153 1,200 -660 Descending FlightAware
07:20PM 33.6200 -84.4640 90° East 133 153 1,000 -720 Descending FlightAware
07:20PM 33.6200 -84.4370 90° East 115 132 -1,860 Descending FlightAware